This is the latest recevied weather packets stored in our database for station/object TF3VP-10. If no packets are shown the sender has not sent any weather packets the latest 10 day(s).
| Time | Temp. | Humidity | Pressure | Rain* | Wind** | Luminosity | Snow |
|---|---|---|---|---|---|---|---|
| 1778319678 | 6.11° C | 72% | 1037.7 hPa | - | - | - | - |
| 1778318778 | 5.56° C | 72% | 1037.8 hPa | - | - | - | - |
| 1778317878 | 5.56° C | 71% | 1037.9 hPa | - | - | - | - |
| 1778316978 | 5.56° C | 70% | 1037.9 hPa | - | - | - | - |
| 1778316079 | 5.56° C | 69% | 1038.1 hPa | - | - | - | - |
| 1778315179 | 5° C | 69% | 1037.9 hPa | - | - | - | - |
| 1778314278 | 4.44° C | 70% | 1037.7 hPa | - | - | - | - |
| 1778313378 | 4.44° C | 70% | 1037.9 hPa | - | - | - | - |
| 1778312478 | 4.44° C | 70% | 1037.8 hPa | - | - | - | - |
| 1778311579 | 3.89° C | 71% | 1037.9 hPa | - | - | - | - |
| 1778310679 | 3.89° C | 70% | 1038 hPa | - | - | - | - |
| 1778309779 | 3.89° C | 70% | 1038.2 hPa | - | - | - | - |
| 1778308878 | 4.44° C | 69% | 1038 hPa | - | - | - | - |
| 1778307978 | 4.44° C | 67% | 1038 hPa | - | - | - | - |
| 1778307078 | 3.89° C | 65% | 1038 hPa | - | - | - | - |
| 1778306178 | 3.33° C | 67% | 1037.9 hPa | - | - | - | - |
| 1778305278 | 3.33° C | 68% | 1037.9 hPa | - | - | - | - |
| 1778304378 | 2.78° C | 69% | 1037.9 hPa | - | - | - | - |
| 1778303478 | 3.33° C | 69% | 1037.8 hPa | - | - | - | - |
| 1778302578 | 3.33° C | 68% | 1037.5 hPa | - | - | - | - |
| 1778301678 | 3.33° C | 69% | 1037.8 hPa | - | - | - | - |
| 1778300778 | 3.33° C | 69% | 1037.9 hPa | - | - | - | - |
| 1778299878 | 3.89° C | 69% | 1038.1 hPa | - | - | - | - |
| 1778298978 | 3.89° C | 66% | 1038.2 hPa | - | - | - | - |
| 1778298079 | 3.89° C | 65% | 1038.1 hPa | - | - | - | - |
* Rain since midnight (hover to see other rain measurements)
** Current wind speed in m/s (hover to see current wind gust speed)